Regional Weather Roundup
Issued by NWS Grand Forks, ND

Home | Current Version | Previous Version | Text Only | Print | Product List | Glossary On
Versions: 1 2 3 4 5 6 7 8 9 10 11 12 13 14 15 16 17 18 19 20 21 22 23 24 25 26 27 28 29 30 31 32 33 34 35 36 37 38 39 40 41 42 43 44 45 46 47 48 49 50
000
ASUS43 KFGF 300331
RWRFGF
PRAIRIE TO PINES  WEATHER ROUNDUP
NATIONAL WEATHER SERVICE EASTERN NORTH DAKOTA/GRAND FORKS ND
1000 PM CDT SAT AUG 29 2015

 **SATELLITE DATA USED TO AUGMENT SKY COVER AT AUTOMATED STATIONS**
 *****  WEATHER ACROSS EASTERN NORTH DAKOTA  *****

CITY           SKY/WX    TMP DP  RH WIND       PRES   REMARKS
GRAND FORKS    FAIR      72  68  87 S13       29.81F
GRAND FRKS AFB FAIR      71  68  90 S12       29.81F
GRAND FRKS NWS   N/A     72 N/A N/A S7          N/A
DEVILS LAKE    PTCLDY    75  66  73 S13       29.80F
FARGO          MOCLDY    73  65  75 S16G22    29.87S
WAHPETON ARPT  PTCLDY    68  63  83 SE8       29.91S
$$

 ***** WEATHER ACROSS CENTRAL AND WESTERN NORTH DAKOTA  *****

CITY           SKY/WX    TMP DP  RH WIND       PRES   REMARKS
BISMARCK       MOCLDY    74  61  63 S7        29.83R
MINOT          CLOUDY    74  59  59 CALM      29.77S HAZE
JAMESTOWN      CLEAR     73  69  87 S12       29.86S
MINOT AFB      MOCLDY    71  60  67 N5        29.77R
GARRISON         N/A     77  62  59 S8        29.80R
WILLISTON      CLOUDY    78  53  41 N6        29.76R HAZE
DICKINSON      MOCLDY    75  49  39 S8        29.83R
HETTINGER      MOCLDY    77  55  46 SE8       29.88R
$$

 *****  OTHER AIRPORT OBSERVATIONS IN OUR AREA  *****

CITY           SKY/WX    TMP DP  RH WIND       PRES   REMARKS
WALHALLA       FAIR      72  72 100 MISG      29.77F
GRAFTON AIRPOR FAIR      68  68 100 S8        29.80F
VALLEY CITY AR CLOUDY    72  72 100 S12       29.87S
CANDO          FAIR      70  66  88 S10       29.81S
CAVALIER APRT  FAIR      70  68  94 S8        29.78F
GWINNER          N/A     72  72 100 S9        29.89F
SHEYENNE NWR     N/A     70  67  91 S3        29.95
ROLLA          MOCLDY    68  61  77 SW8       29.81F
 ***** THE ABOVE OBSERVATIONS ARE NON NWS ARE NOT QUALITY
       CONTROLLED AND MAY MIS-REPORT RAIN FOR SNOW...
$$

  *****  WEATHER ACROSS NORTHERN MINNESOTA  *****

CITY           SKY/WX    TMP DP  RH WIND       PRES   REMARKS
FLAG ISLAND    PTCLDY    68  66  94 S18       29.82F
WARROAD        CLEAR     68  64  88 S3        29.85S
ROSEAU         CLEAR     70  64  83 S9        29.84S
HALLOCK        PTCLDY    70  66  88 S7        29.80S
THF RVR FALLS  PTCLDY   N/A N/A N/A S10       29.86S
BAUDETTE       PTCLDY    68  65  90 S8        29.87F
WASKISH        MOCLDY    68  64  88 S5        29.90F
CROOKSTON      CLEAR     72  66  83 S15       29.85F
STEPHEN NDAWN    N/A     72  70  94 S9          N/A
GREENBUSH NDAW   N/A     70  68  94 S7          N/A
$$
  *****  WEATHER ACROSS CENTRAL AND WEST MINNESOTA  *****

CITY           SKY/WX    TMP DP  RH WIND       PRES   REMARKS
FOSSTON        PTCLDY    64  61  88 S10       29.91S
BEMIDJI        MOCLDY    67  62  82 S8        29.93F
PARK RAPIDS    PTCLDY    65  60  84 SE7       29.96S
ELBOW LAKE     FAIR      65  64  96 S10       29.94F
WADENA         PTCLDY    64  61  88 S8        29.95F
DETROIT LAKES  PTCLDY    68  63  83 S10       29.94S
MOORHEAD       MOCLDY    70  64  83 S13       29.89F
FERGUS FALLS   CLEAR     66  66 100 S12       29.93S
MORRIS MN      CLEAR     66  64  94 S8        29.95F
STAPLES        PTCLDY    63  61  94 S7        29.97F
$$
  *****  WEATHER ELSEWHERE ACROSS MINNESOTA  *****

CITY           SKY/WX    TMP DP  RH WIND       PRES   REMARKS
DULUTH         CLEAR     66  61  84 SW8       29.99F
INTRNTL FALLS  CLOUDY    67  64  90 SE5       29.92S
ELY            CLEAR     63  61  94 CALM      29.97F
CLOQUET        PTCLDY    64  61  88 S5        29.99F
WHEATON        CLEAR     64  63  94 SE10      29.93F
BRAINERD       PTCLDY    64  62  93 S8        29.98S
HIBBING        PTCLDY    65  62  90 S3        29.97F
ALEXANDRIA     CLEAR     66  63  90 S12       29.99S
SAINT CLOUD    CLEAR     62  61  96 SE8       29.99F
MINNEAPOLIS    MOCLDY    68  64  87 S7        30.02R
$$

  *****  WEATHER ACROSS SOUTH DAKOTA  *****

CITY           SKY/WX    TMP DP  RH WIND       PRES   REMARKS
SIOUX FALLS    PTCLDY    66  63  90 S8        30.01S
BROOKINGS      CLEAR     64  61  88 S10       30.01S
WATERTOWN      CLEAR     66  63  90 S12       29.97R
HURON          CLEAR     70  66  87 SE13      29.93R
SISSETON         N/A     69  66  90 S7        29.91S
ABERDEEN       CLEAR     72  68  87 S13       29.90R
MITCHELL       CLEAR     69  67  93 S13       29.96R
PIERRE         CLEAR     76  64  66 SE9       29.87S
MOBRIDGE       CLEAR     73  69  87 SE8       29.85R
RAPID CITY     PTCLDY    71  49  45 CALM      29.93R
$$

  *****  SOME WEATHER IN NEARBY STATES *****

CITY           SKY/WX    TMP DP  RH WIND       PRES   REMARKS
GLASGOW MT     HAZE      80  44  27 E16       29.69F VSB 1
GREAT FALLS MT MOCLDY    73  51  46 S15       29.73F
CHEYENNE WY    CLEAR     72  37  28 S10       30.19R
SCOTTSBLUFF NE CLEAR     68  48  48 E8        30.04R
OMAHA NE       MOCLDY    68  65  90 E6        30.06R
DES MOINES IA  CLOUDY    70  63  78 NE6       30.06R
DAVENPORT IA   CLEAR     65  63  93 CALM      30.05R FOG
CHICAGO IL     CLOUDY    67  65  93 N3        30.03S FOG
EAU CLAIRE WI  FAIR      61  60  97 S3        30.04R
LA CROSSE WI   PTCLDY    65  61  87 E5        30.04S
$$

  *****  SOME NATIONAL WEATHER *****

CITY           SKY/WX    TMP DP  RH WIND       PRES   REMARKS
LA GUARDIA NY  PTCLDY    76  59  55 S13G20    30.10S
RALEIGH NC     CLOUDY    71  63  75 CALM      30.16R
ATLANTA GA     CLOUDY    74  63  68 E7        30.15S
NEW ORLEANS LA PTCLDY    79  68  69 S6        30.02R
OKLAHOMA CITY  CLOUDY    80  64  58 NE9       29.99R
ALBUQUERQUE NM PTCLDY    77  46  33 E12       30.21R
SALT LAKE CITY MOCLDY    87  42  20 S9        29.87S
LOS ANGELES CA PTCLDY    78  65  63 W16       29.82F
BOISE ID       CLOUDY    82  45  27 N12       29.78R
SEATTLE WA     CLOUDY    67  54  63 S10       29.75F
$$

*** WEATHER ACROSS MANITOBA...SASKATCHEWAN AND ONTARIO ***
                ***ONTARIO***

CITY           SKY/WX    TMP DP  RH WIND       PRES   REMARKS
GERALDTON      PTCLDY    59  59 100 SW6       29.94F
THUNDER BAY    CLEAR     57  55  94 CALM      29.96S
SIOUX LOOKOUT  MOCLDY    66  64  94 S8        29.89F
TORONTO        CLOUDY    70  59  68 S2        30.09S
BIG TROUT LK   CLOUDY    68  59  73 S3        29.69F
PICKLE LAKE    NOT AVBL
DRYDEN         CLOUDY    68  64  88 S10       29.89F
KENORA         CLOUDY    68  66  94 S14       29.84F
$$
                *** MANITOBA***

CITY           SKY/WX    TMP DP  RH WIND       PRES   REMARKS
BRANDON        MOCLDY    63  59  88 W5        29.76S SMOKE
DAUPHIN        CLEAR     70  59  68 SW7       29.71R
ISLAND LAKE    CLOUDY    72  57  60 S9G17     29.60F
PILOT MOUND      N/A     66  61  82 S8          N/A
THE PAS        PTCLDY    70  63  78 NW7       29.63R
THOMPSON       PTCLDY    61  57  88 NE15G22   29.61R
WINNIPEG       MOCLDY    72  70  94 S14       29.75S
LYNN LAKE      CLEAR     57  54  88 MISG      29.71R
CHURCHILL      CLOUDY    48  46  93 NE20      29.77S
$$
                ***SASKATCHEWAN***

CITY           SKY/WX    TMP DP  RH WIND       PRES   REMARKS
ESTEVAN        SMOKE     68  55  64 SE5       29.77F VSB 3/4
KINDERSLEY     CLOUDY    75  48  38 SE15      29.61S
LLOYDMINSTER   MOCLDY    68  50  52 SE14      29.55F
PRINCE ALBERT  MOCLDY    63  61  94 SE2       29.66S
REGINA         CLOUDY    72  54  53 E7        29.74S SMOKE
YORKTON        CLEAR     70  57  64 SW8       29.74S
N. BATTLEFORD  CLEAR     70  50  49 SE13      29.62S
LA RONGE       MOCLDY    66  55  68 NE5       29.68R
SASKATOON      CLOUDY    68  55  64 E8        29.67R
SWIFT CURRENT  CLEAR     75  46  35 SE10G17   29.69S HAZE
$$
NOTE: THESE ARE AUTOMATED STATIONS WITH LIMITED QUALITY CONTROL
      "FAIR" INDICATES FEW OR NO CLOUDS BELOW 12,000 FEET WITH NO
      SIGNIFICANT WEATHER AND/OR OBSTRUCTIONS TO VISIBILITY.
      SKY/WX - SKY CONDITION AND SIGNIFICANT WEATHER.
      TMP - AIR TEMPERATURE.    DP   - DEWPOINT TEMPERATURE.
      RH  - RELATIVE HUMIDITY.  PRES - PRESSURE.
      HX  - HEAT INDEX.         WCI  - WIND CHILL INDEX.
$



USA.gov is the U.S. government's official web portal to all federal, state and local government web resources and services.